,,Stat6,,Stat2,,Stat8,,Stat9,,Stat10,,Wind1,,Wind1,
time,status,PA1M_AVG,status,PR1M_SUM,status,RH1M_AVG,status,SR1M_AVG,status,TA1M_AVG,status,W1dAve1m,status,W1sAve1m,
2005-10-12, 00:00:00,VALID,917.766,VALID,0,VALID,99.3505,VALID,0,VALID,20.7313,VALID,20,VALID,0.458984,
2005-10-12, 00:01:00,VALID,917.764,VALID,0,VALID,99.2805,VALID,-0.0169808,VALID,20.747,VALID,20,VALID,0.318004,
2005-10-12, 00:02:00,VALID,917.775,VALID,0,VALID,99.105,VALID,-0.0169808,VALID,20.7343,VALID,20,VALID,0.20625,
2005-10-12, 00:03:00,VALID,917.769,VALID,0,VALID,99.0529,VALID,-0.0169808,VALID,20.7375,VALID,20,VALID,0.391959,
2005-10-12, 00:04:00,VALID,917.763,VALID,0,VALID,98.9868,VALID,-0.0169808,VALID,20.7313,VALID,20,VALID,0.477834,
2005-10-12, 00:05:00,VALID,917.755,VALID,0,VALID,99.1038,VALID,-0.0339617,VALID,20.7507,VALID,26,VALID,0.443598,
2005-10-12, 00:06:00,VALID,917.738,VALID,0,VALID,98.6218,VALID,0,VALID,20.7281,VALID,349,VALID,0.393714,
2005-10-12, 00:07:00,VALID,917.725,VALID,0,VALID,98.281,VALID,-0.0169808,VALID,20.6729,VALID,339,VALID,0.174132,
2005-10-12, 00:08:00,VALID,917.691,VALID,0,VALID,98.131,VALID,-0.0509425,VALID,20.6277,VALID,339,VALID,0.280134,
2005-10-12, 00:09:00,VALID,917.666,VALID,0,VALID,98.0102,VALID,-0.0169808,VALID,20.586,VALID,339,VALID,0.056686,
2005-10-12, 00:10:00,VALID,917.641,VALID,0,VALID,97.9263,VALID,-0.0509425,VALID,20.5308,VALID,339,VALID,0.0951087,
2005-10-12, 00:11:00,VALID,917.593,VALID,0,VALID,98.131,VALID,0,VALID,20.5017,VALID,339,VALID,0.133013,
2005-10-12, 00:12:00,VALID,917.556,VALID,0,VALID,98.2429,VALID,0,VALID,20.4953,VALID,337,VALID,0.180889,
2005-10-12, 00:13:00,VALID,917.517,VALID,0,VALID,98.2938,VALID,0,VALID,20.4724,VALID,322,VALID,0.254972,
2005-10-12, 00:14:00,VALID,917.492,VALID,0,VALID,98.3332,VALID,0,VALID,20.4471,VALID,310,VALID,0.156783,
2005-10-12, 00:15:00,VALID,917.469,VALID,0,VALID,98.6002,VALID,-0.0169808,VALID,20.4433,VALID,310,VALID,0.00568182,
2005-10-12, 00:16:00,VALID,917.461,VALID,0,VALID,98.5481,VALID,-0.0169808,VALID,20.4314,VALID,309,VALID,0,
2005-10-12, 00:17:00,VALID,917.453,VALID,0,VALID,98.7452,VALID,-0.0169808,VALID,20.4212,VALID,309,VALID,0.012718,
2005-10-12, 00:18:00,VALID,917.447,VALID,0,VALID,99.2271,VALID,-0.0339617,VALID,20.4533,VALID,310,VALID,0,
2005-10-12, 00:19:00,VALID,917.436,VALID,0,VALID,99.634,VALID,-0.0169808,VALID,20.505,VALID,310,VALID,0.103659,
2005-10-12, 00:20:00,VALID,917.436,VALID,0,VALID,99.6251,VALID,-0.0169808,VALID,20.5176,VALID,311,VALID,0.187872,
2005-10-12, 00:21:00,VALID,917.437,VALID,0,VALID,99.5806,VALID,0,VALID,20.5313,VALID,6,VALID,0.458789,
2005-10-12, 00:22:00,VALID,917.437,VALID,0,VALID,99.676,VALID,0,VALID,20.551,VALID,24,VALID,0.379954,
2005-10-12, 00:23:00,VALID,917.454,VALID,0,VALID,99.5743,VALID,0,VALID,20.544,VALID,28,VALID,0.0673363,
2005-10-12, 00:24:00,VALID,917.459,VALID,0,VALID,99.4649,VALID,-0.0169808,VALID,20.5214,VALID,28,VALID,0.0490057,
2005-10-12, 00:25:00,VALID,917.474,VALID,0,VALID,99.6378,VALID,0,VALID,20.5208,VALID,28,VALID,0.585574,
2005-10-12, 00:26:00,VALID,917.495,VALID,0,VALID,99.9802,VALID,0,VALID,20.5668,VALID,26,VALID,0.848899,
2005-10-12, 00:27:00,VALID,917.504,VALID,0,VALID,99.987,VALID,-0.0169808,VALID,20.5701,VALID,27,VALID,0.724276,
2005-10-12, 00:28:00,VALID,917.522,VALID,0,VALID,99.9654,VALID,-0.0339617,VALID,20.5539,VALID,21,VALID,0.782493,
2005-10-12, 00:29:00,VALID,917.549,VALID,0,VALID,100,VALID,-0.0509425,VALID,20.5564,VALID,22,VALID,0.869735,
2005-10-12, 00:30:00,VALID,917.56,VALID,0,VALID,100,VALID,-0.0169808,VALID,20.5738,VALID,19,VALID,0.603516,
2005-10-12, 00:31:00,VALID,917.55,VALID,0,VALID,99.9751,VALID,-0.0169808,VALID,20.5609,VALID,14,VALID,0.512305,
2005-10-12, 00:32:00,VALID,917.557,VALID,0,VALID,99.7548,VALID,0,VALID,20.5087,VALID,13,VALID,0.196429,
2005-10-12, 00:33:00,VALID,917.537,VALID,0,VALID,99.5183,VALID,-0.0169808,VALID,20.4538,VALID,355,VALID,0.221112,
2005-10-12, 00:34:00,VALID,917.513,VALID,0,VALID,99.2551,VALID,-0.0169808,VALID,20.3951,VALID,354,VALID,0.237909,
2005-10-12, 00:35:00,VALID,917.478,VALID,0,VALID,99.3466,VALID,-0.0679233,VALID,20.3604,VALID,354,VALID,0.00279018,
2005-10-12, 00:36:00,VALID,917.445,VALID,0.2,VALID,99.6951,VALID,-0.0679233,VALID,20.3757,VALID,354,VALID,0.0181686,
2005-10-12, 00:37:00,VALID,917.416,VALID,0,VALID,99.6455,VALID,-0.0169808,VALID,20.3631,VALID,354,VALID,0.0720703,
2005-10-12, 00:38:00,VALID,917.399,VALID,0,VALID,99.4891,VALID,-0.0169808,VALID,20.3211,VALID,344,VALID,0.268555,
2005-10-12, 00:39:00,VALID,917.403,VALID,0,VALID,99.5247,VALID,-0.0509425,VALID,20.2888,VALID,340,VALID,0.122638,
2005-10-12, 00:40:00,VALID,917.404,VALID,0,VALID,99.5272,VALID,-0.0169808,VALID,20.2533,VALID,340,VALID,0.214939,
2005-10-12, 00:41:00,VALID,917.424,VALID,0,VALID,99.6556,VALID,-0.0509425,VALID,20.2341,VALID,340,VALID,0.111737,
2005-10-12, 00:42:00,VALID,917.421,VALID,0,VALID,99.8642,VALID,-0.0169808,VALID,20.2244,VALID,340,VALID,0.012718,
2005-10-12, 00:43:00,VALID,917.434,VALID,0,VALID,99.9891,VALID,-0.0169808,VALID,20.2244,VALID,340,VALID,0.104651,
2005-10-12, 00:44:00,VALID,917.449,VALID,0,VALID,100,VALID,-0.0339617,VALID,20.2118,VALID,340,VALID,0,
2005-10-12, 00:45:00,VALID,917.453,VALID,0,VALID,100,VALID,-0.0169808,VALID,20.2086,VALID,340,VALID,0,
2005-10-12, 00:46:00,VALID,917.46,VALID,0,VALID,100,VALID,-0.0169808,VALID,20.1981,VALID,340,VALID,0.0161577,
2005-10-12, 00:47:00,VALID,917.455,VALID,0,VALID,100,VALID,-0.0509425,VALID,20.2247,VALID,344,VALID,0.222942,
2005-10-12, 00:48:00,VALID,917.448,VALID,0,VALID,100,VALID,-0.0169808,VALID,20.2376,VALID,346,VALID,0.460556,
2005-10-12, 00:49:00,VALID,917.456,VALID,0.2,VALID,100,VALID,-0.0169808,VALID,20.2468,VALID,353,VALID,0.449777,
2005-10-12, 00:50:00,VALID,917.453,VALID,0,VALID,100,VALID,-0.0339617,VALID,20.2958,VALID,354,VALID,0.279916,
2005-10-12, 00:51:00,VALID,917.445,VALID,0,VALID,100,VALID,-0.0169808,VALID,20.3027,VALID,354,VALID,0.387074,
2005-10-12, 00:52:00,VALID,917.443,VALID,0,VALID,100,VALID,-0.0339617,VALID,20.3055,VALID,355,VALID,0.452939,
2005-10-12, 00:53:00,VALID,917.444,VALID,0,VALID,100,VALID,-0.0339617,VALID,20.334,VALID,15,VALID,0.532315,
2005-10-12, 00:54:00,VALID,917.462,VALID,0,VALID,100,VALID,-0.0679233,VALID,20.3738,VALID,23,VALID,0.586328,
2005-10-12, 00:55:00,VALID,917.49,VALID,0,VALID,100,VALID,0,VALID,20.3633,VALID,23,VALID,0.126116,
2005-10-12, 00:56:00,VALID,917.505,VALID,0,VALID,100,VALID,-0.0169808,VALID,20.3827,VALID,23,VALID,0.106055,
2005-10-12, 00:57:00,VALID,917.513,VALID,0,VALID,100,VALID,-0.0339617,VALID,20.3703,VALID,23,VALID,0.391741,
2005-10-12, 00:58:00,VALID,917.513,VALID,0,VALID,100,VALID,-0.0339617,VALID,20.3633,VALID,23,VALID,0.626715,
2005-10-12, 00:59:00,VALID,917.514,VALID,0,VALID,100,VALID,-0.0169808,VALID,20.3412,VALID,27,VALID,0.607088,
2005-10-12, 01:00:00,VALID,917.512,VALID,0,VALID,100,VALID,-0.0169808,VALID,20.299,VALID,27,VALID,0.812863,
2005-10-12, 01:01:00,VALID,917.513,VALID,0,VALID,100,VALID,0,VALID,20.293,VALID,8,VALID,0.839177,
2005-10-12, 01:02:00,VALID,917.523,VALID,0,VALID,100,VALID,-0.0339617,VALID,20.2605,VALID,23,VALID,0.816602,
2005-10-12, 01:03:00,VALID,917.521,VALID,0,VALID,100,VALID,-0.101885,VALID,20.2411,VALID,9,VALID,0.679129,
2005-10-12, 01:04:00,VALID,917.524,VALID,0,VALID,100,VALID,-0.0849042,VALID,20.2123,VALID,11,VALID,0.5984,
2005-10-12, 01:05:00,VALID,917.509,VALID,0,VALID,100,VALID,-0.0509425,VALID,20.2153,VALID,19,VALID,0.697088,
2005-10-12, 01:06:00,VALID,917.512,VALID,0,VALID,100,VALID,-0.0849042,VALID,20.2344,VALID,15,VALID,0.658736,
2005-10-12, 01:07:00,VALID,917.499,VALID,0,VALID,100,VALID,-0.0339617,VALID,20.2319,VALID,3,VALID,0.892756,
2005-10-12, 01:08:00,VALID,917.499,VALID,0,VALID,100,VALID,-0.0849042,VALID,20.1862,VALID,12,VALID,0.60061,
2005-10-12, 01:09:00,VALID,917.5,VALID,0,VALID,100,VALID,-0.0849042,VALID,20.183,VALID,7,VALID,0.455543,
2005-10-12, 01:10:00,VALID,917.496,VALID,0,VALID,100,VALID,-0.0679233,VALID,20.1703,VALID,352,VALID,0.526643,
2005-10-12, 01:11:00,VALID,917.492,VALID,0,VALID,100,VALID,-0.0679233,VALID,20.1469,VALID,352,VALID,0.517442,
2005-10-12, 01:12:00,VALID,917.482,VALID,0.2,VALID,100,VALID,-0.101885,VALID,20.1442,VALID,355,VALID,0.355741,
2005-10-12, 01:13:00,VALID,917.485,VALID,0,VALID,100,VALID,-0.0679233,VALID,20.1377,VALID,355,VALID,0.188058,
2005-10-12, 01:14:00,VALID,917.464,VALID,0,VALID,100,VALID,-0.0509425,VALID,20.1154,VALID,355,VALID,0.311012,
2005-10-12, 01:15:00,VALID,917.464,VALID,0,VALID,100,VALID,-0.0339617,VALID,20.0925,VALID,355,VALID,0.134266,
2005-10-12, 01:16:00,VALID,917.454,VALID,0,VALID,100,VALID,-0.0679233,VALID,20.0861,VALID,355,VALID,0.00892857,
2005-10-12, 01:17:00,VALID,917.437,VALID,0,VALID,100,VALID,-0.0169808,VALID,20.099,VALID,354,VALID,0.0328125,
2005-10-12, 01:18:00,VALID,917.428,VALID,0,VALID,100,VALID,0,VALID,20.138,VALID,355,VALID,0.196039,
2005-10-12, 01:19:00,VALID,917.423,VALID,0,VALID,100,VALID,-0.0679233,VALID,20.1601,VALID,355,VALID,0.301054,
2005-10-12, 01:20:00,VALID,917.41,VALID,0,VALID,100,VALID,-0.0509425,VALID,20.1606,VALID,354,VALID,0.647507,
2005-10-12, 01:21:00,VALID,917.392,VALID,0,VALID,100,VALID,-0.0849042,VALID,20.1708,VALID,350,VALID,0.274414,
2005-10-12, 01:22:00,VALID,917.384,VALID,0.2,VALID,100,VALID,-0.0849042,VALID,20.1735,VALID,349,VALID,0.303085,
2005-10-12, 01:23:00,VALID,917.358,VALID,0,VALID,100,VALID,-0.0509425,VALID,20.1862,VALID,352,VALID,0.49295,
2005-10-12, 01:24:00,VALID,917.339,VALID,0,VALID,100,VALID,-0.0509425,VALID,20.1576,VALID,313,VALID,0.368945,
2005-10-12, 01:25:00,VALID,917.333,VALID,0,VALID,100,VALID,-0.0509425,VALID,20.1385,VALID,314,VALID,0.223438,
2005-10-12, 01:26:00,VALID,917.314,VALID,0,VALID,100,VALID,-0.0509425,VALID,20.1541,VALID,347,VALID,0.312682,
2005-10-12, 01:27:00,VALID,917.295,VALID,0,VALID,100,VALID,-0.0679233,VALID,20.177,VALID,349,VALID,0.169336,
2005-10-12, 01:28:00,VALID,917.259,VALID,0.2,VALID,100,VALID,-0.0679233,VALID,20.2289,VALID,352,VALID,0.43532,
2005-10-12, 01:29:00,VALID,917.247,VALID,0,VALID,100,VALID,-0.0849042,VALID,20.2448,VALID,1,VALID,0.520198,
2005-10-12, 01:30:00,VALID,917.224,VALID,0,VALID,100,VALID,-0.0339617,VALID,20.2607,VALID,11,VALID,0.56686,
2005-10-12, 01:31:00,VALID,917.206,VALID,0,VALID,100,VALID,-0.0849042,VALID,20.2672,VALID,19,VALID,0.540206,
2005-10-12, 01:32:00,VALID,917.191,VALID,0,VALID,100,VALID,-0.0339617,VALID,20.2901,VALID,19,VALID,0.544922,
2005-10-12, 01:33:00,VALID,917.172,VALID,0,VALID,100,VALID,-0.101885,VALID,20.293,VALID,23,VALID,0.662464,
2005-10-12, 01:34:00,VALID,917.154,VALID,0,VALID,100,VALID,-0.0679233,VALID,20.3191,VALID,24,VALID,0.693132,
2005-10-12, 01:35:00,VALID,917.128,VALID,0,VALID,100,VALID,-0.0849042,VALID,20.3355,VALID,20,VALID,0.711719,
2005-10-12, 01:36:00,VALID,917.102,VALID,0,VALID,100,VALID,-0.0849042,VALID,20.3253,VALID,28,VALID,0.796131,
2005-10-12, 01:37:00,VALID,917.075,VALID,0,VALID,100,VALID,-0.0679233,VALID,20.306,VALID,20,VALID,0.90952,
2005-10-12, 01:38:00,VALID,917.064,VALID,0.2,VALID,100,VALID,-0.0679233,VALID,20.3027,VALID,4,VALID,0.617989,
2005-10-12, 01:39:00,VALID,917.046,VALID,0,VALID,100,VALID,-0.0849042,VALID,20.2093,VALID,324,VALID,0.433689,
2005-10-12, 01:40:00,VALID,917.025,VALID,0,VALID,100,VALID,-0.0339617,VALID,20.1735,VALID,355,VALID,0.448289,
2005-10-12, 01:41:00,VALID,916.995,VALID,0,VALID,100,VALID,-0.0849042,VALID,20.173,VALID,4,VALID,0.556323,
2005-10-12, 01:42:00,VALID,916.968,VALID,0,VALID,100,VALID,-0.0679233,VALID,20.1447,VALID,336,VALID,0.646532,
2005-10-12, 01:43:00,VALID,916.947,VALID,0,VALID,100,VALID,-0.0509425,VALID,20.099,VALID,10,VALID,0.741097,
2005-10-12, 01:44:00,VALID,916.914,VALID,0,VALID,100,VALID,-0.0849042,VALID,20.1127,VALID,354,VALID,0.536458,
2005-10-12, 01:45:00,VALID,916.869,VALID,0.2,VALID,100,VALID,-0.101885,VALID,20.0863,VALID,352,VALID,0.469866,
2005-10-12, 01:46:00,VALID,916.838,VALID,0,VALID,100,VALID,-0.0679233,VALID,20.0925,VALID,358,VALID,0.438227,
2005-10-12, 01:47:00,VALID,916.816,VALID,0,VALID,100,VALID,-0.0169808,VALID,20.1052,VALID,15,VALID,0.403299,
2005-10-12, 01:48:00,VALID,916.793,VALID,0.2,VALID,100,VALID,0,VALID,20.1335,VALID,14,VALID,0.402004,
2005-10-12, 01:49:00,VALID,916.766,VALID,0,VALID,100,VALID,0.0339617,VALID,20.1268,VALID,14,VALID,0.523619,
2005-10-12, 01:50:00,VALID,916.747,VALID,0,VALID,100,VALID,0,VALID,20.1367,VALID,16,VALID,0.617188,
2005-10-12, 01:51:00,VALID,916.749,VALID,0,VALID,100,VALID,0.0509425,VALID,20.1658,VALID,26,VALID,0.75686,
2005-10-12, 01:52:00,VALID,916.742,VALID,0.2,VALID,100,VALID,0.0169808,VALID,20.2016,VALID,25,VALID,0.747523,
2005-10-12, 01:53:00,VALID,916.737,VALID,0,VALID,100,VALID,0.0339617,VALID,20.1914,VALID,24,VALID,0.491815,
2005-10-12, 01:54:00,VALID,916.742,VALID,0,VALID,100,VALID,0.0339617,VALID,20.1916,VALID,24,VALID,0.402778,
2005-10-12, 01:55:00,VALID,916.731,VALID,0.2,VALID,100,VALID,0.0679233,VALID,20.1593,VALID,340,VALID,0.773438,
2005-10-12, 01:56:00,VALID,916.708,VALID,0,VALID,100,VALID,0.0169808,VALID,20.0883,VALID,310,VALID,0.554297,
2005-10-12, 01:57:00,VALID,916.694,VALID,0,VALID,100,VALID,0.0509425,VALID,20.0528,VALID,303,VALID,0.489648,
2005-10-12, 01:58:00,VALID,916.681,VALID,0,VALID,100,VALID,0.0849042,VALID,20.0234,VALID,303,VALID,0.367374,
2005-10-12, 01:59:00,VALID,916.674,VALID,0,VALID,100,VALID,0.0509425,VALID,20.0369,VALID,335,VALID,0.495384,
2005-10-12, 02:00:00,VALID,916.646,VALID,0.2,VALID,100,VALID,0.0339617,VALID,20.0301,VALID,8,VALID,0.581174,
2005-10-12, 02:01:00,VALID,916.619,VALID,0,VALID,100,VALID,0.0679233,VALID,20.0823,VALID,28,VALID,1.03924,
2005-10-12, 02:02:00,VALID,916.615,VALID,0,VALID,100,VALID,0.0339617,VALID,20.1012,VALID,27,VALID,1.10865,
2005-10-12, 02:03:00,VALID,916.609,VALID,0,VALID,100,VALID,-0.0339617,VALID,20.1479,VALID,27,VALID,1.00112,
2005-10-12, 02:04:00,VALID,916.608,VALID,0,VALID,100,VALID,-0.0339617,VALID,20.1606,VALID,16,VALID,0.723656,
2005-10-12, 02:05:00,VALID,916.612,VALID,0.2,VALID,100,VALID,0,VALID,20.1541,VALID,7,VALID,0.612038,
2005-10-12, 02:06:00,VALID,916.614,VALID,0,VALID,100,VALID,0,VALID,20.1606,VALID,6,VALID,0.615785,
2005-10-12, 02:07:00,VALID,916.612,VALID,0,VALID,100,VALID,-0.0169808,VALID,20.1735,VALID,355,VALID,0.268164,
2005-10-12, 02:08:00,VALID,916.591,VALID,0,VALID,100,VALID,-0.0169808,VALID,20.141,VALID,15,VALID,0.664258,
2005-10-12, 02:09:00,VALID,916.575,VALID,0.2,VALID,100,VALID,0,VALID,20.0895,VALID,325,VALID,1.17898,
2005-10-12, 02:10:00,VALID,916.568,VALID,0,VALID,100,VALID,-0.0169808,VALID,20.0379,VALID,345,VALID,0.883176,
2005-10-12, 02:11:00,VALID,916.564,VALID,0,VALID,100,VALID,0,VALID,19.9991,VALID,354,VALID,0.406059,
2005-10-12, 02:12:00,VALID,916.565,VALID,0.2,VALID,100,VALID,-0.0169808,VALID,19.9954,VALID,14,VALID,0.368229,
2005-10-12, 02:13:00,VALID,916.58,VALID,0,VALID,100,VALID,0,VALID,20.0319,VALID,36,VALID,0.500762,
2005-10-12, 02:14:00,VALID,916.578,VALID,0,VALID,100,VALID,0,VALID,20.0505,VALID,23,VALID,1.04451,
2005-10-12, 02:15:00,VALID,916.587,VALID,0,VALID,100,VALID,0,VALID,20.1027,VALID,13,VALID,0.949405,
2005-10-12, 02:16:00,VALID,916.585,VALID,0.2,VALID,100,VALID,-0.0169808,VALID,20.1191,VALID,22,VALID,0.880766,
2005-10-12, 02:17:00,VALID,916.583,VALID,0,VALID,100,VALID,0,VALID,20.1447,VALID,17,VALID,0.932351,
2005-10-12, 02:18:00,VALID,916.578,VALID,0,VALID,100,VALID,0,VALID,20.17,VALID,31,VALID,0.769436,
2005-10-12, 02:19:00,VALID,916.58,VALID,0,VALID,100,VALID,0.0169808,VALID,20.1927,VALID,31,VALID,0.46503,
2005-10-12, 02:20:00,VALID,916.572,VALID,0,VALID,100,VALID,0,VALID,20.1566,VALID,347,VALID,0.78125,
2005-10-12, 02:21:00,VALID,916.567,VALID,0,VALID,100,VALID,0,VALID,20.1218,VALID,7,VALID,0.558594,
2005-10-12, 02:22:00,VALID,916.548,VALID,0.2,VALID,100,VALID,0,VALID,20.1092,VALID,6,VALID,0.323583,
2005-10-12, 02:23:00,VALID,916.551,VALID,0,VALID,100,VALID,0,VALID,20.0861,VALID,7,VALID,0.391578,
2005-10-12, 02:24:00,VALID,916.534,VALID,0,VALID,100,VALID,0,VALID,20.0928,VALID,330,VALID,0.663504,
2005-10-12, 02:25:00,VALID,916.53,VALID,0,VALID,100,VALID,0,VALID,20.054,VALID,19,VALID,0.743608,
2005-10-12, 02:26:00,VALID,916.503,VALID,0,VALID,100,VALID,-0.0169808,VALID,20.0476,VALID,12,VALID,0.896949,
2005-10-12, 02:27:00,VALID,916.494,VALID,0,VALID,100,VALID,0,VALID,20.0317,VALID,13,VALID,0.719551,
2005-10-12, 02:28:00,VALID,916.489,VALID,0,VALID,100,VALID,0,VALID,20.0349,VALID,6,VALID,0.428906,
2005-10-12, 02:29:00,VALID,916.465,VALID,0,VALID,100,VALID,0,VALID,20.0093,VALID,286,VALID,0.55599,
2005-10-12, 02:30:00,VALID,916.46,VALID,0,VALID,100,VALID,0,VALID,19.9767,VALID,285,VALID,0.29144,
2005-10-12, 02:31:00,VALID,916.437,VALID,0.2,VALID,100,VALID,-0.0169808,VALID,19.9897,VALID,1,VALID,0.476749,
2005-10-12, 02:32:00,VALID,916.433,VALID,0,VALID,100,VALID,-0.0169808,VALID,20.0192,VALID,1,VALID,0.462891,
2005-10-12, 02:33:00,VALID,916.415,VALID,0,VALID,100,VALID,-0.0339617,VALID,20.0252,VALID,7,VALID,0.802641,
2005-10-12, 02:34:00,VALID,916.42,VALID,0,VALID,100,VALID,0,VALID,19.9864,VALID,360,VALID,0.563045,
2005-10-12, 02:35:00,VALID,916.405,VALID,0,VALID,100,VALID,0,VALID,20.009,VALID,13,VALID,1.03264,
2005-10-12, 02:36:00,VALID,916.393,VALID,0,VALID,100,VALID,-0.0169808,VALID,19.9735,VALID,4,VALID,1.43464,
2005-10-12, 02:37:00,VALID,916.397,VALID,0,VALID,100,VALID,-0.0339617,VALID,19.9641,VALID,1,VALID,0.916548,
2005-10-12, 02:38:00,VALID,916.375,VALID,0,VALID,100,VALID,-0.0169808,VALID,19.9439,VALID,16,VALID,0.869191,
2005-10-12, 02:39:00,VALID,916.372,VALID,0,VALID,100,VALID,0,VALID,19.9601,VALID,11,VALID,1.48791,
2005-10-12, 02:40:00,VALID,916.368,VALID,0,VALID,100,VALID,-0.0169808,VALID,19.9146,VALID,18,VALID,1.17696,
2005-10-12, 02:41:00,VALID,916.348,VALID,0,VALID,100,VALID,-0.0169808,VALID,19.9189,VALID,6,VALID,1.1305,
2005-10-12, 02:42:00,VALID,916.327,VALID,0,VALID,100,VALID,0,VALID,19.9025,VALID,22,VALID,1.66685,
2005-10-12, 02:43:00,VALID,916.325,VALID,0,VALID,100,VALID,0,VALID,19.8928,VALID,16,VALID,1.23075,
2005-10-12, 02:44:00,VALID,916.319,VALID,0,VALID,100,VALID,-0.0169808,VALID,19.8771,VALID,3,VALID,0.982067,
2005-10-12, 02:45:00,VALID,916.325,VALID,0,VALID,100,VALID,0,VALID,19.8731,VALID,6,VALID,1.06516,
2005-10-12, 02:46:00,VALID,916.317,VALID,0,VALID,100,VALID,-0.0169808,VALID,19.8572,VALID,22,VALID,1.55333,
2005-10-12, 02:47:00,VALID,916.329,VALID,0,VALID,100,VALID,-0.0679233,VALID,19.8669,VALID,29,VALID,1.15825,
2005-10-12, 02:48:00,VALID,916.327,VALID,0,VALID,100,VALID,-0.101885,VALID,19.8995,VALID,36,VALID,1.01079,
2005-10-12, 02:49:00,VALID,916.318,VALID,0,VALID,100,VALID,-0.101885,VALID,19.9519,VALID,14,VALID,0.884115,
2005-10-12, 02:50:00,VALID,916.321,VALID,0,VALID,100,VALID,-0.101885,VALID,19.9223,VALID,358,VALID,0.976563,
2005-10-12, 02:51:00,VALID,916.316,VALID,0,VALID,100,VALID,-0.101885,VALID,19.9,VALID,344,VALID,0.970881,
2005-10-12, 02:52:00,VALID,916.315,VALID,0,VALID,100,VALID,-0.0849042,VALID,19.861,VALID,329,VALID,1.21768,
2005-10-12, 02:53:00,VALID,916.316,VALID,0,VALID,100,VALID,-0.0849042,VALID,19.8384,VALID,7,VALID,1.4252,
2005-10-12, 02:54:00,VALID,916.316,VALID,0,VALID,100,VALID,-0.101885,VALID,19.858,VALID,4,VALID,1.55938,
2005-10-12, 02:55:00,VALID,916.31,VALID,0,VALID,100,VALID,-0.101885,VALID,19.8351,VALID,4,VALID,1.22749,
2005-10-12, 02:56:00,VALID,916.315,VALID,0,VALID,100,VALID,-0.101885,VALID,19.8192,VALID,358,VALID,1.44948,
2005-10-12, 02:57:00,VALID,916.313,VALID,0,VALID,100,VALID,-0.101885,VALID,19.8093,VALID,357,VALID,1.22567,
2005-10-12, 02:58:00,VALID,916.314,VALID,0,VALID,100,VALID,-0.0679233,VALID,19.8158,VALID,10,VALID,1.00688,
2005-10-12, 02:59:00,VALID,916.305,VALID,0,VALID,100,VALID,-0.101885,VALID,19.8163,VALID,9,VALID,1.56649,
2005-10-12, 03:00:00,VALID,916.288,VALID,0,VALID,100,VALID,-0.0679233,VALID,19.777,VALID,320,VALID,1.43998,
2005-10-12, 03:01:00,VALID,916.296,VALID,0,VALID,100,VALID,-0.0849042,VALID,19.7708,VALID,4,VALID,1.33668,
2005-10-12, 03:02:00,VALID,916.298,VALID,0,VALID,100,VALID,-0.0339617,VALID,19.7795,VALID,21,VALID,1.19931,
2005-10-12, 03:03:00,VALID,916.303,VALID,0,VALID,100,VALID,0.0169808,VALID,19.8148,VALID,14,VALID,0.775923,
2005-10-12, 03:04:00,VALID,916.307,VALID,0,VALID,100,VALID,0,VALID,19.817,VALID,12,VALID,1.06232,
2005-10-12, 03:05:00,VALID,916.287,VALID,0,VALID,100,VALID,0.0169808,VALID,19.8172,VALID,359,VALID,1.27695,
2005-10-12, 03:06:00,VALID,916.293,VALID,0,VALID,100,VALID,0,VALID,19.8143,VALID,3,VALID,1.23619,
2005-10-12, 03:07:00,VALID,916.299,VALID,0,VALID,100,VALID,0.0169808,VALID,19.7954,VALID,15,VALID,0.906783,
2005-10-12, 03:08:00,VALID,916.303,VALID,0,VALID,100,VALID,0.0339617,VALID,19.8051,VALID,351,VALID,0.931691,
2005-10-12, 03:09:00,VALID,916.302,VALID,0,VALID,100,VALID,0,VALID,19.7857,VALID,339,VALID,1.2901,
2005-10-12, 03:10:00,VALID,916.314,VALID,0,VALID,100,VALID,0.0169808,VALID,19.7725,VALID,359,VALID,1.14608,
2005-10-12, 03:11:00,VALID,916.31,VALID,0,VALID,100,VALID,0.0339617,VALID,19.7599,VALID,345,VALID,1.31152,
2005-10-12, 03:12:00,VALID,916.313,VALID,0,VALID,100,VALID,0.0169808,VALID,19.7693,VALID,12,VALID,1.62264,
2005-10-12, 03:13:00,VALID,916.324,VALID,0,VALID,100,VALID,0,VALID,19.7951,VALID,349,VALID,0.655342,
2005-10-12, 03:14:00,VALID,916.327,VALID,0,VALID,100,VALID,0.0169808,VALID,19.7887,VALID,315,VALID,0.731076,
2005-10-12, 03:15:00,VALID,916.325,VALID,0,VALID,100,VALID,0.0169808,VALID,19.7758,VALID,347,VALID,0.879724,
2005-10-12, 03:16:00,VALID,916.321,VALID,0,VALID,100,VALID,0,VALID,19.7852,VALID,19,VALID,1.0798,
2005-10-12, 03:17:00,VALID,916.32,VALID,0,VALID,100,VALID,0,VALID,19.8346,VALID,6,VALID,0.561012,
2005-10-12, 03:18:00,VALID,916.313,VALID,0,VALID,100,VALID,0.0169808,VALID,19.8369,VALID,7,VALID,0.777083,
2005-10-12, 03:19:00,VALID,916.3,VALID,0,VALID,100,VALID,0.0169808,VALID,19.8657,VALID,11,VALID,0.859976,
2005-10-12, 03:20:00,VALID,916.277,VALID,0,VALID,100,VALID,0.0509425,VALID,19.8595,VALID,357,VALID,0.329078,
2005-10-12, 03:21:00,VALID,916.281,VALID,0,VALID,100,VALID,0,VALID,19.8336,VALID,357,VALID,0.422447,
2005-10-12, 03:22:00,VALID,916.281,VALID,0,VALID,100,VALID,0.0169808,VALID,19.8205,VALID,357,VALID,0.230114,
2005-10-12, 03:23:00,VALID,916.269,VALID,0,VALID,100,VALID,0.0169808,VALID,19.8366,VALID,357,VALID,0.201823,
2005-10-12, 03:24:00,VALID,916.268,VALID,0,VALID,100,VALID,0,VALID,19.8557,VALID,357,VALID,0.192406,
2005-10-12, 03:25:00,VALID,916.264,VALID,0,VALID,100,VALID,0.0169808,VALID,19.892,VALID,357,VALID,0.205983,
2005-10-12, 03:26:00,VALID,916.239,VALID,0,VALID,100,VALID,0.0169808,VALID,19.9171,VALID,358,VALID,0.158594,
2005-10-12, 03:27:00,VALID,916.215,VALID,0,VALID,100,VALID,0.0339617,VALID,19.9402,VALID,358,VALID,0.162729,
2005-10-12, 03:28:00,VALID,916.189,VALID,0,VALID,100,VALID,0,VALID,19.9377,VALID,359,VALID,0.40696,
2005-10-12, 03:29:00,VALID,916.179,VALID,0,VALID,100,VALID,0,VALID,19.9052,VALID,359,VALID,0.203125,
2005-10-12, 03:30:00,VALID,916.161,VALID,0,VALID,100,VALID,-0.0169808,VALID,19.8761,VALID,359,VALID,0.356357,
2005-10-12, 03:31:00,VALID,916.153,VALID,0,VALID,100,VALID,0,VALID,19.8694,VALID,359,VALID,0.349964,
2005-10-12, 03:32:00,VALID,916.151,VALID,0,VALID,100,VALID,-0.0169808,VALID,19.8759,VALID,14,VALID,0.399368,
2005-10-12, 03:33:00,VALID,916.157,VALID,0,VALID,100,VALID,0,VALID,19.8987,VALID,19,VALID,0.282703,
2005-10-12, 03:34:00,VALID,916.168,VALID,0,VALID,100,VALID,0,VALID,19.8759,VALID,19,VALID,0.205669,
2005-10-12, 03:35:00,VALID,916.182,VALID,0,VALID,100,VALID,0,VALID,19.8729,VALID,19,VALID,0.13681,
2005-10-12, 03:36:00,VALID,916.194,VALID,0,VALID,100,VALID,0,VALID,19.8761,VALID,19,VALID,0.512429,
2005-10-12, 03:37:00,VALID,916.183,VALID,0,VALID,100,VALID,-0.0339617,VALID,19.8955,VALID,23,VALID,0.551448,
2005-10-12, 03:38:00,VALID,916.182,VALID,0,VALID,100,VALID,0.0339617,VALID,19.9049,VALID,24,VALID,0.649414,
2005-10-12, 03:39:00,VALID,916.176,VALID,0,VALID,100,VALID,0,VALID,19.9022,VALID,24,VALID,0.40407,
2005-10-12, 03:40:00,VALID,916.159,VALID,0.2,VALID,100,VALID,0,VALID,19.9179,VALID,24,VALID,0.650618,
2005-10-12, 03:41:00,VALID,916.146,VALID,0,VALID,100,VALID,0.0169808,VALID,19.931,VALID,27,VALID,0.731105,